ROMMA est une association bénévole à but non lucratif. Votre soutien est indispensable : ADHERER à ROMMA ou FAIRE un DON

Le Versoud - (38, Isère)

Vallée du Grésivaudan (220 m)   Longitude: 05° 51' 44" E   Latitude: 45° 13' 06" N Station partenaire n°6
 

Détail journalier du     <<     >>

Température Humidité Pression Vent Dir Rafale Dir. rafale Ensol.
Heure (°C) (%) (hPa) (km/h) (km/h) (min)
01:00 19.979101600---0
02:00 19.780101600---0
03:00 19.180101600---0
04:00 18.781101500---0
05:00 18.085101500---0
06:00 17.885101600---0
07:00 18.884101600---35
08:00 21.173101600---60
09:00 21.772101600---50
10:00 23.563101600---60
11:00 24.7621016010E60
12:00 26.351101505E60
13:00 27.550101508ENE45
14:00 28.947101406NNO0
15:00 29.750101406NNO50
16:00 30.940101308NNO60
17:00 31.441101308NNE60
18:00 29.95310125NE24NE55
19:00 30.25410121N18NE25
20:00 28.75510131N13ENE45
21:00 26.6601014011NE0
22:00 24.770101500---0
23:00 24.272101500---0
minuit 23.176101500---0

Graphique du 03-07-2019

 

Serveur OMMA